CW2285 Weather Reports


Display with metric or nautical units.
time (UTC)temp
F
wind
direction
speed
MPH
gust
MPH
rain 1hr
in
rain 24hr
in
rain mn
in
humidity
%
barometer
mb
20260905193502 98 129 3.0 8.0 0.00 0.00 0.00 14 1008.9
20260905193002 98 116 4.0 10.0 0.00 0.00 0.00 12 1009.0
20260905192502 98 133 4.0 6.0 0.00 0.00 0.00 12 1009.0
20260905191502 98 104 6.0 9.0 0.00 0.00 0.00 12 1009.2
20260905190503 97 121 2.0 7.0 0.00 0.00 0.00 12 1009.4
20260905190002 97 78 5.0 9.0 0.00 0.00 0.00 12 1009.5
20260905185502 97 143 3.0 6.0 0.00 0.00 0.00 14 1009.5
20260905185002 96 184 3.0 6.0 0.00 0.00 0.00 15 1009.5
20260905184502 96 142 2.0 7.0 0.00 0.00 0.00 13 1009.5
20260905184002 95 128 3.0 9.0 0.00 0.00 0.00 13 1009.5
20260905183502 94 103 3.0 8.0 0.00 0.00 0.00 13 1009.5
20260905183002 94 136 3.0 5.0 0.00 0.00 0.00 13 1009.5
20260905182502 94 151 3.0 8.0 0.00 0.00 0.00 15 1009.6
20260905182002 94 143 3.0 6.0 0.00 0.00 0.00 15 1009.6
20260905181502 93 156 1.0 5.0 0.00 0.00 0.00 15 1009.7
20260905181002 93 186 3.0 5.0 0.00 0.00 0.00 16 1009.6
20260905180502 93 163 1.0 5.0 0.00 0.00 0.00 18 1009.8
20260905175502 92 169 2.0 3.0 0.00 0.00 0.00 17 1009.7
20260905175002 92 171 2.0 3.0 0.00 0.00 0.00 18 1009.8
20260905174502 92 165 1.0 5.0 0.00 0.00 0.00 19 1009.7
20260905174002 91 194 2.0 5.0 0.00 0.00 0.00 19 1009.6
20260905173501 91 185 2.0 5.0 0.00 0.00 0.00 21 1009.5
20260905173001 91 199 3.0 5.0 0.00 0.00 0.00 20 1009.5
20260905172002 91 238 0.0 3.0 0.00 0.00 0.00 18 1009.5
20260905171502 91 228 3.0 3.0 0.00 0.00 0.00 18 1009.5
20260905171002 90 223 2.0 3.0 0.00 0.00 0.00 21 1009.5
20260905170002 90 208 2.0 5.0 0.00 0.00 0.00 19 1009.5
20260905165501 90 235 2.0 5.0 0.00 0.00 0.00 20 1009.5
20260905164502 91 226 3.0 6.0 0.00 0.00 0.00 18 1009.5
20260905164002 91 249 4.0 8.0 0.00 0.00 0.00 16 1009.5
20260905163502 91 215 3.0 8.0 0.00 0.00 0.00 17 1009.5
20260905163002 91 224 5.0 9.0 0.00 0.00 0.00 18 1009.5
20260905162502 90 170 3.0 8.0 0.00 0.00 0.00 16 1009.5
20260905162002 90 223 5.0 9.0 0.00 0.00 0.00 18 1009.5
20260905161502 90 236 7.0 12.0 0.00 0.00 0.00 17 1009.3
20260905161002 90 233 5.0 9.0 0.00 0.00 0.00 16 1009.3
20260905155502 90 280 5.0 9.0 0.00 0.00 0.00 16 1009.1
20260905155001 89 279 3.0 8.0 0.00 0.00 0.00 17 1009.1
20260905154502 89 282 5.0 9.0 0.00 0.00 0.00 17 1009.1
20260905153502 89 308 2.0 8.0 0.00 0.00 0.00 17 1009.0
20260905153002 88 305 3.0 7.0 0.00 0.00 0.00 17 1009.0
20260905152502 88 296 4.0 9.0 0.00 0.00 0.00 17 1009.0
20260905152002 87 288 3.0 9.0 0.00 0.00 0.00 18 1009.0
20260905151003 86 301 3.0 7.0 0.00 0.00 0.00 18 1008.9
20260905150002 86 314 1.0 3.0 0.00 0.00 0.00 19 1008.9
20260905145502 86 306 1.0 8.0 0.00 0.00 0.00 19 1008.9
20260905145001 85 296 2.0 3.0 0.00 0.00 0.00 19 1008.9
20260905144502 85 326 2.0 10.0 0.00 0.00 0.00 19 1008.9
20260905144002 84 292 3.0 8.0 0.00 0.00 0.00 19 1008.8
20260905143502 84 264 1.0 8.0 0.00 0.00 0.00 20 1008.8
20260905142002 83 283 2.0 6.0 0.00 0.00 0.00 20 1008.6
20260905141502 83 297 4.0 10.0 0.00 0.00 0.00 20 1008.6
20260905141002 82 302 3.0 8.0 0.00 0.00 0.00 21 1008.5
20260905140502 82 304 2.0 7.0 0.00 0.00 0.00 21 1008.5
20260905140002 82 301 2.0 9.0 0.00 0.00 0.00 21 1008.4
20260905135502 81 309 3.0 8.0 0.00 0.00 0.00 22 1008.4
20260905135002 81 294 5.0 10.0 0.00 0.00 0.00 21 1008.4
20260905134501 81 305 5.0 12.0 0.00 0.00 0.00 22 1008.3
20260905134001 80 316 3.0 8.0 0.00 0.00 0.00 22 1008.3
20260905133501 80 302 2.0 5.0 0.00 0.00 0.00 22 1008.4
20260905133002 81 276 2.0 5.0 0.00 0.00 0.00 22 1008.4
20260905132502 81 56 1.0 3.0 0.00 0.00 0.00 22 1008.5
20260905132002 81 144 1.0 3.0 0.00 0.00 0.00 22 1008.4
20260905131002 81 279 2.0 8.0 0.00 0.00 0.00 22 1008.2
20260905130503 82 275 3.0 6.0 0.00 0.00 0.00 21 1008.0
20260905130002 82 286 3.0 7.0 0.00 0.00 0.00 22 1008.0
20260905125502 81 302 3.0 12.0 0.00 0.00 0.00 22 1008.0
20260905125002 81 300 1.0 7.0 0.00 0.00 0.00 22 1007.9
20260905124503 81 303 4.0 9.0 0.00 0.00 0.00 22 1007.9
20260905124002 81 278 3.0 9.0 0.00 0.00 0.00 23 1007.7
20260905123502 82 297 5.0 12.0 0.00 0.00 0.00 23 1007.6
20260905123002 81 299 6.0 12.0 0.00 0.00 0.00 23 1007.5
20260905121502 81 298 5.0 12.0 0.00 0.00 0.00 24 1007.5
20260905121001 81 298 3.0 9.0 0.00 0.00 0.00 25 1007.5
20260905120502 81 290 1.0 8.0 0.00 0.00 0.00 25 1007.5
20260905120002 81 296 3.0 9.0 0.00 0.00 0.00 25 1007.4
20260905115502 81 299 1.0 5.0 0.00 0.00 0.00 25 1007.4
20260905115002 81 318 2.0 8.0 0.00 0.00 0.00 25 1007.4
20260905114502 81 305 3.0 10.0 0.00 0.00 0.00 24 1007.4
20260905114002 81 285 2.0 7.0 0.00 0.00 0.00 24 1007.4
20260905113002 81 310 2.0 8.0 0.00 0.00 0.00 24 1007.4
20260905112502 81 297 3.0 10.0 0.00 0.00 0.00 25 1007.4
20260905112002 81 300 3.0 6.0 0.00 0.00 0.00 24 1007.4
20260905111502 82 291 2.0 12.0 0.00 0.00 0.00 24 1007.4
20260905111002 82 305 4.0 10.0 0.00 0.00 0.00 24 1007.4
20260905110002 82 293 2.0 8.0 0.00 0.00 0.00 23 1007.5
20260905105502 82 312 4.0 12.0 0.00 0.00 0.00 23 1007.5
20260905104502 81 294 5.0 9.0 0.00 0.00 0.00 24 1007.4
20260905104002 81 304 5.0 9.0 0.00 0.00 0.00 24 1007.4
20260905103502 81 304 3.0 10.0 0.00 0.00 0.00 25 1007.4
20260905103002 81 308 3.0 9.0 0.00 0.00 0.00 25 1007.4
20260905102502 81 300 4.0 12.0 0.00 0.00 0.00 25 1007.4
20260905102002 81 313 3.0 10.0 0.00 0.00 0.00 25 1007.4
20260905101502 81 295 1.0 8.0 0.00 0.00 0.00 25 1007.4
20260905101003 82 304 4.0 10.0 0.00 0.00 0.00 24 1007.4
20260905100502 82 319 3.0 10.0 0.00 0.00 0.00 24 1007.4
20260905095002 82 300 6.0 12.0 0.00 0.00 0.00 23 1007.4
20260905094502 82 288 7.0 13.0 0.00 0.00 0.00 24 1007.4
20260905094003 82 298 5.0 15.0 0.00 0.00 0.00 24 1007.4
20260905093503 82 299 5.0 14.0 0.00 0.00 0.00 24 1007.4
20260905093002 82 295 3.0 13.0 0.00 0.00 0.00 24 1007.4
20260905092002 82 302 6.0 12.0 0.00 0.00 0.00 24 1007.5
20260905091502 82 299 3.0 9.0 0.00 0.00 0.00 24 1007.5
20260905091002 81 302 3.0 13.0 0.00 0.00 0.00 24 1007.5
20260905090502 81 317 2.0 6.0 0.00 0.00 0.00 24 1007.5
20260905090002 82 323 2.0 3.0 0.00 0.00 0.00 24 1007.5
20260905085501 82 313 3.0 9.0 0.00 0.00 0.00 24 1007.6
20260905085001 82 322 2.0 6.0 0.00 0.00 0.00 24 1007.6
20260905084502 82 298 3.0 8.0 0.00 0.00 0.00 24 1007.6
20260905083502 82 302 2.0 7.0 0.00 0.00 0.00 24 1007.6
20260905083002 82 308 4.0 9.0 0.00 0.00 0.00 25 1007.6
20260905082002 82 297 2.0 9.0 0.00 0.00 0.00 25 1007.7
20260905081502 82 319 3.0 12.0 0.00 0.00 0.00 25 1007.8
20260905081002 82 317 3.0 9.0 0.00 0.00 0.00 25 1007.8
20260905080502 82 301 3.0 10.0 0.00 0.00 0.00 25 1007.7
20260905080002 82 314 3.0 12.0 0.00 0.00 0.00 26 1007.6
20260905075502 82 305 2.0 12.0 0.00 0.00 0.00 25 1007.6
20260905075002 82 299 6.0 14.0 0.00 0.00 0.00 26 1007.7
20260905074002 82 307 5.0 12.0 0.00 0.00 0.00 26 1007.6
20260905073502 82 311 3.0 10.0 0.00 0.00 0.00 26 1007.6
20260905072502 82 311 2.0 12.0 0.00 0.00 0.00 26 1007.6
20260905072001 82 302 5.0 13.0 0.00 0.00 0.00 27 1007.5
20260905071002 82 298 5.0 10.0 0.00 0.00 0.00 27 1007.4
20260905070503 82 305 3.0 8.0 0.00 0.00 0.00 28 1007.4
20260905070002 83 328 1.0 7.0 0.00 0.00 0.00 27 1007.4
20260905065502 83 307 2.0 8.0 0.00 0.00 0.00 26 1007.4
20260905065001 83 307 3.0 7.0 0.00 0.00 0.00 27 1007.4
20260905064502 82 310 1.0 5.0 0.00 0.00 0.00 27 1007.4
20260905064002 82 318 2.0 6.0 0.00 0.00 0.00 27 1007.4
20260905063502 82 326 2.0 7.0 0.00 0.00 0.00 28 1007.4
20260905063002 83 316 3.0 7.0 0.00 0.00 0.00 28 1007.3
20260905062502 83 312 2.0 6.0 0.00 0.00 0.00 28 1007.3
20260905062001 83 309 3.0 8.0 0.00 0.00 0.00 27 1007.2
20260905061502 83 325 4.0 12.0 0.00 0.00 0.00 27 1007.1
20260905060503 83 307 4.0 9.0 0.00 0.00 0.00 27 1007.2
20260905055502 83 295 8.0 15.0 0.00 0.00 0.00 27 1006.9
20260905055002 83 309 5.0 15.0 0.00 0.00 0.00 27 1007.0
20260905054503 83 304 7.0 14.0 0.00 0.00 0.00 27 1007.0
20260905054003 83 304 6.0 12.0 0.00 0.00 0.00 28 1007.0
20260905053504 83 300 7.0 15.0 0.00 0.00 0.00 28 1006.9
20260905052503 83 304 6.0 15.0 0.00 0.00 0.00 26 1007.0
20260905052003 83 296 6.0 14.0 0.00 0.00 0.00 27 1007.0
20260905051003 83 317 4.0 12.0 0.00 0.00 0.00 28 1006.9
20260905050502 84 323 3.0 14.0 0.00 0.00 0.00 27 1007.0
20260905050002 84 305 6.0 12.0 0.00 0.00 0.00 26 1006.9
20260905045503 84 316 5.0 14.0 0.00 0.00 0.00 26 1006.9
20260905045003 84 311 5.0 17.0 0.00 0.00 0.00 25 1006.9
20260905044002 85 301 6.0 14.0 0.00 0.00 0.00 25 1006.9
20260905043003 85 323 3.0 9.0 0.00 0.00 0.00 25 1006.7
20260905042503 85 311 3.0 8.0 0.00 0.00 0.00 25 1006.7
20260905042003 85 302 4.0 8.0 0.00 0.00 0.00 24 1006.6
20260905041503 85 317 6.0 13.0 0.00 0.00 0.00 24 1006.4
20260905041003 85 327 4.0 12.0 0.00 0.00 0.00 24 1006.4
20260905040502 86 335 3.0 10.0 0.00 0.00 0.00 24 1006.4
20260905040003 86 314 6.0 14.0 0.00 0.00 0.00 24 1006.4
20260905035503 86 299 8.0 20.0 0.00 0.00 0.00 24 1006.4
20260905035003 87 296 7.0 17.0 0.00 0.00 0.00 24 1006.4
20260905034502 87 301 6.0 15.0 0.00 0.00 0.00 23 1006.3
20260905034002 87 292 7.0 13.0 0.00 0.00 0.00 24 1006.3
20260905033503 87 290 6.0 20.0 0.00 0.00 0.00 24 1006.1
20260905033003 87 297 6.0 12.0 0.00 0.00 0.00 24 1006.0
20260905032003 88 303 8.0 14.0 0.00 0.00 0.00 23 1006.0
20260905031503 88 296 7.0 17.0 0.00 0.00 0.00 22 1005.9
20260905031003 89 295 7.0 16.0 0.00 0.00 0.00 23 1005.9
20260905030003 89 300 7.0 14.0 0.00 0.00 0.00 21 1005.4
20260905025003 89 287 6.0 16.0 0.00 0.00 0.00 21 1005.3
20260905024503 90 292 7.0 13.0 0.00 0.00 0.00 21 1005.3
20260905023503 90 300 7.0 14.0 0.00 0.00 0.00 21 1005.1
20260905023003 90 274 5.0 15.0 0.00 0.00 0.00 21 1005.2
20260905022503 91 295 7.0 14.0 0.00 0.00 0.00 19 1005.1
20260905022003 92 294 6.0 16.0 0.00 0.00 0.00 18 1005.0
20260905021002 92 298 6.0 12.0 0.00 0.00 0.00 18 1004.9
20260905020502 93 279 9.0 18.0 0.00 0.00 0.00 18 1004.8
20260905020003 93 291 10.0 20.0 0.00 0.00 0.00 17 1004.9
20260905015502 94 301 7.0 14.0 0.00 0.00 0.00 17 1004.9
20260905015003 94 308 6.0 14.0 0.00 0.00 0.00 17 1004.8
20260905014002 95 299 7.0 17.0 0.00 0.00 0.00 16 1004.8
20260905013503 95 299 7.0 16.0 0.00 0.00 0.00 16 1004.8
20260905013003 95 301 9.0 16.0 0.00 0.00 0.00 16 1004.8
20260905012502 95 294 9.0 18.0 0.00 0.00 0.00 16 1004.9
20260905012003 96 290 10.0 16.0 0.00 0.00 0.00 16 1004.9
20260905011503 96 299 7.0 17.0 0.00 0.00 0.00 17 1004.9
20260905011003 96 297 7.0 16.0 0.00 0.00 0.00 17 1004.9
20260905010502 97 288 10.0 17.0 0.00 0.00 0.00 16 1004.9
20260905010003 97 289 7.0 14.0 0.00 0.00 0.00 16 1004.9
20260905005502 98 283 8.0 13.0 0.00 0.00 0.00 16 1004.9
20260905005002 98 309 6.0 13.0 0.00 0.00 0.00 16 1004.9
20260905004503 98 280 8.0 16.0 0.00 0.00 0.00 16 1005.0
20260905004003 99 282 5.0 9.0 0.00 0.00 0.00 16 1005.1
20260905003003 99 307 2.0 13.0 0.00 0.00 0.00 15 1005.2
20260905002503 99 296 6.0 12.0 0.00 0.00 0.00 15 1005.1
20260905002003 100 290 3.0 10.0 0.00 0.00 0.00 15 1005.0
20260905001002 100 263 1.0 7.0 0.00 0.00 0.00 16 1005.2
20260905000502 99 13 2.0 5.0 0.00 0.00 0.00 17 1005.3
20260904235002 98 94 1.0 2.0 0.00 0.00 0.00 16 1005.3
20260904234502 98 213 2.0 3.0 0.00 0.00 0.00 17 1005.3
20260904234003 99 153 2.0 5.0 0.00 0.00 0.00 16 1005.4
20260904233503 98 187 2.0 5.0 0.00 0.00 0.00 16 1005.4
20260904233002 98 210 5.0 7.0 0.00 0.00 0.00 17 1005.4
20260904232502 98 192 5.0 7.0 0.00 0.00 0.00 17 1005.4
20260904232003 99 167 3.0 7.0 0.00 0.00 0.00 16 1005.4
20260904231003 100 125 4.0 9.0 0.00 0.00 0.00 16 1005.5
20260904230503 99 193 5.0 7.0 0.00 0.00 0.00 16 1005.7
20260904230003 100 83 6.0 8.0 0.00 0.00 0.00 15 1005.7
20260904225504 99 122 5.0 9.0 0.00 0.00 0.00 16 1005.7
20260904224503 98 106 1.0 8.0 0.00 0.00 0.00 15 1005.7
20260904224003 99 114 4.0 9.0 0.00 0.00 0.00 15 1005.8
20260904223503 99 135 2.0 7.0 0.00 0.00 0.00 15 1005.8
20260904223003 98 88 2.0 8.0 0.00 0.00 0.00 16 1005.9
20260904222503 97 246 3.0 6.0 0.00 0.00 0.00 15 1005.9
20260904222002 97 176 2.0 5.0 0.00 0.00 0.00 16 1005.9
20260904221003 99 77 3.0 9.0 0.00 0.00 0.00 15 1006.1
20260904220002 98 73 6.0 9.0 0.00 0.00 0.00 16 1006.2
20260904215003 97 122 3.0 9.0 0.00 0.00 0.00 17 1006.3
20260904214503 97 135 3.0 7.0 0.00 0.00 0.00 15 1006.4
20260904214003 97 136 3.0 7.0 0.00 0.00 0.00 16 1006.4
20260904213503 97 142 3.0 8.0 0.00 0.00 0.00 16 1006.4
20260904213002 97 150 2.0 8.0 0.00 0.00 0.00 15 1006.5
20260904212503 99 116 5.0 9.0 0.00 0.00 0.00 15 1006.5
20260904212002 97 123 4.0 8.0 0.00 0.00 0.00 16 1006.4
20260904211502 97 33 4.0 7.0 0.00 0.00 0.00 16 1006.5
20260904211003 97 148 2.0 8.0 0.00 0.00 0.00 16 1006.5
20260904210503 97 111 7.0 10.0 0.00 0.00 0.00 15 1006.6
20260904210003 97 125 7.0 10.0 0.00 0.00 0.00 15 1006.5
20260904205003 97 93 5.0 8.0 0.00 0.00 0.00 16 1006.8
20260904204503 95 182 2.0 3.0 0.00 0.00 0.00 17 1006.8
20260904204003 95 207 3.0 6.0 0.00 0.00 0.00 17 1006.8
20260904203502 96 147 2.0 7.0 0.00 0.00 0.00 16 1006.8
20260904203003 96 196 2.0 7.0 0.00 0.00 0.00 16 1006.8
20260904202503 95 205 3.0 7.0 0.00 0.00 0.00 17 1006.9
20260904202003 95 216 4.0 7.0 0.00 0.00 0.00 16 1006.9
20260904201502 95 253 3.0 6.0 0.00 0.00 0.00 17 1006.9
20260904201003 96 213 0.0 5.0 0.00 0.00 0.00 17 1007.0
20260904200503 95 46 3.0 7.0 0.00 0.00 0.00 17 1007.0
20260904195503 95 86 3.0 8.0 0.00 0.00 0.00 16 1007.3
20260904195003 94 116 4.0 8.0 0.00 0.00 0.00 17 1007.4
20260904194503 94 77 1.0 7.0 0.00 0.00 0.00 21 1007.4
20260904194003 93 204 1.0 3.0 0.00 0.00 0.00 19 1007.4